Date String (YYYY-MM-DD hh:mm:ss) UTC,Instrument flags,Ambient pressure (hPa),Sample flow (lpm),Bypass flow (lpm),Sample temperature (°C),Ambient temperature (°C),ASC tube jacket temperature (°C),LED temperature (°C),Box temperature (°C),Sample RH (%),Span deviation,Mass concentration (μg/m³),Mass concentration (μg/m³),Mass concentration (μg/m³)
DateTimeUTC,F1_M11,P_M11,Q1_M11,Q2_M11,T1_M11,T2_M11,T3_M11,T4_M11,T5_M11,U1_M11,ZSPAN_M11,X2_M11,X0_M11,X1_M11
2021-09-26 13:00:00,,0826.5,5.01,0.00,30.2,29.4,00.0,39.2,32.0,10.0,0001.1,0006.75,0011.85,0006.03
2021-09-26 13:01:00,,0826.5,4.99,0.00,30.2,29.4,00.0,39.3,32.0,10.0,0000.9,0006.77,0011.35,0006.02
2021-09-26 13:02:00,,0826.5,5.01,0.00,30.3,29.4,00.0,39.3,32.1,10.0,0001.2,0006.76,0011.08,0006.02
2021-09-26 13:03:00,,0826.5,4.99,0.00,30.3,29.4,00.0,39.3,32.1,10.0,0001.9,0006.74,0011.27,0006.01
2021-09-26 13:04:00,,0826.5,5.00,0.00,30.3,29.4,00.0,39.3,32.1,09.9,0001.9,0006.77,0011.79,0006.04
2021-09-26 13:05:00,,0826.5,5.01,0.00,30.3,29.4,00.0,39.3,32.1,09.9,0002.0,0006.84,0012.21,0006.06
2021-09-26 13:06:00,,0826.5,4.99,0.00,30.3,29.4,00.0,39.3,32.1,09.9,0001.8,0006.85,0013.13,0006.07
2021-09-26 13:07:00,,0826.5,5.01,0.00,30.3,29.4,00.0,39.4,32.1,09.9,0002.1,0006.85,0013.47,0006.08
2021-09-26 13:08:00,,0826.5,5.00,0.00,30.3,29.5,00.0,39.4,32.1,09.9,0002.9,0006.84,0013.86,0006.08
2021-09-26 13:09:00,,0826.5,5.00,0.00,30.4,29.5,00.0,39.4,32.1,09.9,0003.1,0006.87,0014.11,0006.10
2021-09-26 13:10:00,,0826.5,5.00,0.00,30.4,29.2,00.0,39.4,32.0,09.9,0003.5,0006.91,0014.60,0006.12
2021-09-26 13:11:00,,0826.5,5.00,0.00,30.3,27.3,00.0,39.4,31.6,10.0,0003.8,0006.92,0014.37,0006.12
2021-09-26 13:12:00,,0826.5,5.00,0.00,30.1,26.7,00.0,39.3,31.4,10.1,0004.0,0006.94,0014.69,0006.12
2021-09-26 13:13:00,,0826.5,5.01,0.00,30.0,26.9,00.0,39.3,31.4,10.1,0003.9,0006.94,0014.67,0006.11
2021-09-26 13:14:00,,0826.5,5.00,0.00,30.0,27.3,00.0,39.2,31.4,10.2,0003.5,0006.95,0014.56,0006.09
2021-09-26 13:15:00,,0826.5,5.00,0.00,29.9,27.6,00.0,39.2,31.4,10.3,0003.4,0006.89,0014.56,0006.07
2021-09-26 13:16:00,,0826.5,5.00,0.00,29.9,27.9,00.0,39.2,31.5,10.3,0003.1,0006.85,0014.23,0006.02
2021-09-26 13:17:00,,0826.5,4.99,0.00,29.9,28.2,00.0,39.2,31.6,10.4,0003.1,0006.77,0013.34,0005.98
2021-09-26 13:18:00,,0826.5,5.01,0.00,29.9,28.3,00.0,39.1,31.6,10.6,0002.8,0006.70,0012.74,0005.92
2021-09-26 13:19:00,,0826.5,4.99,0.00,29.9,28.5,00.0,39.1,31.6,10.7,0002.4,0006.64,0012.59,0005.87
2021-09-26 13:20:00,,0826.5,5.01,0.00,30.0,28.6,00.0,39.1,31.7,10.7,0002.2,0006.56,0012.46,0005.80
2021-09-26 13:21:00,,0826.6,4.99,0.00,30.0,28.7,00.0,39.1,31.7,10.7,0001.7,0006.47,0011.74,0005.74
2021-09-26 13:22:00,,0826.5,5.00,0.00,30.0,28.8,00.0,39.1,31.8,10.7,0001.2,0006.40,0011.65,0005.69
2021-09-26 13:23:00,,0826.5,5.00,0.00,30.0,28.9,00.0,39.1,31.8,10.7,0000.5,0006.32,0011.25,0005.65
2021-09-26 13:24:00,,0826.5,5.00,0.00,30.0,28.9,00.0,39.1,31.7,10.6,0000.8,0006.27,0011.19,0005.61
2021-09-26 13:25:00,,0826.5,5.01,0.00,30.0,29.0,00.0,39.1,31.8,10.5,0001.4,0006.24,0011.16,0005.60
2021-09-26 13:26:00,,0826.5,5.01,0.00,30.1,29.0,00.0,39.1,31.8,10.5,0001.2,0006.25,0011.12,0005.56
2021-09-26 13:27:00,,0826.5,4.98,0.00,30.1,29.0,00.0,39.1,31.8,10.5,0002.0,0006.21,0010.90,0005.53
2021-09-26 13:28:00,,0826.5,5.01,0.00,30.1,29.1,00.0,39.2,31.8,10.3,0002.4,0006.22,0011.05,0005.51
2021-09-26 13:29:00,,0826.5,5.01,0.00,30.1,29.1,00.0,39.2,31.9,10.4,0003.0,0006.27,0011.18,0005.52
2021-09-26 13:30:00,,0826.6,4.99,0.00,30.1,29.2,00.0,39.2,31.9,10.4,0002.7,0006.29,0011.14,0005.54
2021-09-26 13:31:00,,0826.6,5.00,0.00,30.2,29.2,00.0,39.2,31.9,10.5,0002.4,0006.36,0011.37,0005.57
2021-09-26 13:32:00,,0826.5,5.00,0.00,30.2,29.3,00.0,39.2,32.0,10.5,0002.0,0006.41,0011.46,0005.60
2021-09-26 13:33:00,,0826.6,5.01,0.00,30.2,29.3,00.0,39.2,32.0,10.5,0001.7,0006.41,0011.40,0005.63
2021-09-26 13:34:00,,0826.6,5.00,0.00,30.2,29.3,00.0,39.2,32.0,10.7,0002.0,0006.44,0011.69,0005.65
2021-09-26 13:35:00,,0826.5,5.00,0.00,30.2,29.3,00.0,39.3,32.0,10.7,0001.7,0006.47,0011.86,0005.67
2021-09-26 13:36:00,,0826.5,5.01,0.00,30.2,29.4,00.0,39.3,32.0,10.7,0001.5,0006.47,0012.06,0005.67
2021-09-26 13:37:00,,0826.5,4.99,0.00,30.2,29.4,00.0,39.3,32.0,10.7,0001.6,0006.43,0011.63,0005.67
2021-09-26 13:38:00,,0826.5,5.00,0.00,30.3,29.4,00.0,39.3,32.0,10.7,0001.3,0006.43,0011.49,0005.69
2021-09-26 13:39:00,,0826.5,5.00,0.00,30.3,29.4,00.0,39.3,32.0,10.7,0001.2,0006.41,0011.41,0005.70
2021-09-26 13:40:00,,0826.5,5.01,0.00,30.3,29.4,00.0,39.3,32.0,10.6,0001.0,0006.36,0011.26,0005.69
2021-09-26 13:41:00,,0826.5,4.99,0.00,30.3,29.4,00.0,39.3,32.0,10.6,0001.2,0006.31,0011.10,0005.67
2021-09-26 13:42:00,,0826.5,5.00,0.00,30.3,29.4,00.0,39.3,32.0,10.5,0001.1,0006.28,0011.45,0005.67
2021-09-26 13:43:00,,0826.5,4.99,0.00,30.3,29.3,00.0,39.4,32.0,10.6,0001.4,0006.24,0011.36,0005.65
2021-09-26 13:44:00,,0826.5,5.01,0.00,30.3,28.6,00.0,39.4,31.9,10.6,0001.7,0006.26,0011.86,0005.65
2021-09-26 13:45:00,,0826.5,5.01,0.00,30.2,27.1,00.0,39.3,31.5,10.5,0001.4,0006.23,0011.83,0005.64
2021-09-26 13:46:00,,0826.5,4.99,0.00,30.1,27.1,00.0,39.3,31.5,10.6,0001.1,0006.22,0011.76,0005.64
2021-09-26 13:47:00,,0826.5,5.00,0.00,30.0,27.5,00.0,39.3,31.5,10.6,0000.9,0006.25,0012.00,0005.64
2021-09-26 13:48:00,,0826.5,5.00,0.00,30.0,27.8,00.0,39.2,31.5,10.6,0000.8,0006.27,0012.55,0005.65
2021-09-26 13:49:00,,0826.6,5.00,0.00,30.0,28.0,00.0,39.2,31.5,10.8,0000.8,0006.29,0012.80,0005.65
2021-09-26 13:50:00,,0826.6,4.99,0.00,30.0,28.2,00.0,39.2,31.6,10.8,0000.4,0006.29,0012.74,0005.65
2021-09-26 13:51:00,,0826.6,5.01,0.00,30.0,28.4,00.0,39.2,31.6,10.8,0000.7,0006.31,0013.26,0005.65
2021-09-26 13:52:00,,0826.6,4.99,0.00,30.0,28.5,00.0,39.2,31.6,10.8,0000.8,0006.35,0013.76,0005.66
2021-09-26 13:53:00,,0826.6,4.99,0.00,30.0,28.6,00.0,39.2,31.7,10.6,0000.8,0006.35,0013.58,0005.66
2021-09-26 13:54:00,,0826.6,5.00,0.00,30.0,28.7,00.0,39.2,31.7,10.6,0000.8,0006.35,0013.51,0005.66
2021-09-26 13:55:00,,0826.6,5.00,0.00,30.0,28.8,00.0,39.2,31.7,10.6,0001.3,0006.31,0013.39,0005.65
2021-09-26 13:56:00,,0826.6,5.00,0.00,30.1,28.8,00.0,39.2,31.8,10.7,0001.6,0006.35,0013.18,0005.63
2021-09-26 13:57:00,,0826.6,5.00,0.00,30.1,28.9,00.0,39.2,31.8,10.7,0001.8,0006.37,0013.39,0005.62
2021-09-26 13:58:00,,0826.6,5.00,0.00,30.1,28.9,00.0,39.2,31.7,10.6,0001.6,0006.34,0013.28,0005.61
2021-09-26 13:59:00,,0826.7,5.00,0.00,30.1,29.0,00.0,39.2,31.7,10.5,0001.5,0006.36,0013.52,0005.62
